Aurillac, France

1:59 AM CET on December 06, 2019 (GMT +0100)
Aurillac

Weather History for LFLW - July, 2019

Change the Weather History Date:

Sunday, July 21, 2019

  Actual Average Record
Temperature  
Mean Temperature 74 °F -  
Max Temperature 86 °F - - ()
Min Temperature 63 °F - - ()
Cooling Degree Days 10    
Growing Degree Days 24 (Base 50)    
Moisture  
Dew Point 63 °F    
Average Humidity 67    
Maximum Humidity 94    
Minimum Humidity 35    
Precipitation  
Precipitation 0.00 in - - ()
Sea Level Pressure  
Sea Level Pressure 30.19 in    
Wind  
Wind Speed 3 mph ()    
Max Wind Speed 7 mph    
Max Gust Speed -    
Visibility 7.5 miles    
Events      
T = Trace of Precipitation, MM = Missing Value Source: Averaged Metar Reports

Daily Weather History Graph

Daily Weather History Graph

Search for Another Location

Airport or City:

Astronomy

Jul. 21, 2019 Rise Set
Actual Time 6:23 AM CEST 9:29 PM CEST
Civil Twilight 5:48 AM CEST 10:04 PM CEST
Nautical Twilight 5:03 AM CEST 10:49 PM CEST
Astronomical Twilight 4:08 AM CEST 11:43 PM CEST
Moon No Moon Rise 10:38 AM CEST (7/21)
Length of Visible Light 16h 15m
Length of Day
15h 05m
Waning Gibbous, 82% of the Moon is Illuminated
Jul 21
Waning Gibbous
Jul 25
Last Quarter
Aug 1
New
Aug 7
First Quarter
Aug 15
Full

Hourly Weather History & Observations

Time (CEST) Temp. Heat Index Dew Point Humidity Pressure Visibility Wind Dir Wind Speed Gust Speed Precip Events Conditions
12:00 AM 72 °F - 64 °F 69% 30.09 in 17 mi SW 2.3 mph - -   Clear
12:00 AM 71.6 °F - 64.4 °F 78% 30.18 in 6.2 mi Variable 2.3 mph - N/A   Mostly Cloudy
12:30 AM 71.6 °F - 64.4 °F 78% 30.18 in 6.2 mi Variable 2.3 mph - N/A   Overcast
1:00 AM 70 °F - 64 °F 76% 30.11 in 14 mi NW 1.2 mph - -   Clear
1:00 AM 69.8 °F - 64.4 °F 83% 30.18 in 6.2 mi Variable 1.2 mph - N/A   Overcast
1:30 AM 69.8 °F - 64.4 °F 83% 30.18 in 6.2 mi Variable 1.2 mph - N/A   Overcast
2:00 AM 69 °F - 64 °F 78% 30.12 in 13 mi Calm Calm - -   Clear
2:00 AM 69.8 °F - 64.4 °F 83% 30.18 in 6.2 mi Calm Calm - N/A   Overcast
2:30 AM 68.0 °F - 64.4 °F 88% 30.18 in 6.2 mi Calm Calm - N/A   Mostly Cloudy
3:00 AM 68.0 °F - 62.6 °F 83% 30.18 in 6.2 mi Calm Calm - N/A   Mostly Cloudy
3:30 AM 68.0 °F - 64.4 °F 88% 30.18 in 6.2 mi NNW 3.5 mph - N/A   Overcast
4:00 AM 67 °F - 64 °F 87% 30.13 in 6 mi WNW 2.3 mph - -   Clear
4:00 AM 68.0 °F - 64.4 °F 88% 30.18 in 6.2 mi Variable 2.3 mph - N/A   Overcast
4:30 AM 66.2 °F - 64.4 °F 94% 30.18 in 5.6 mi Calm Calm - N/A   Overcast
5:00 AM 66.2 °F - 64.4 °F 94% 30.18 in - Variable 2.3 mph - N/A   Clear
5:30 AM 64.4 °F - 62.6 °F 94% 30.18 in - SW 2.3 mph - N/A   Clear
6:00 AM 64.4 °F - 62.6 °F 94% 30.18 in - West 2.3 mph - N/A   Clear
6:30 AM 64.4 °F - 62.6 °F 94% 30.18 in - Variable 2.3 mph - N/A   Clear
7:00 AM 64 °F - 62 °F 90% 30.15 in 4 mi South 2.3 mph - -   Clear
7:00 AM 64.4 °F - 62.6 °F 94% 30.21 in 5.0 mi South 2.3 mph - N/A   Unknown
7:30 AM 64.4 °F - 62.6 °F 94% 30.21 in - West 2.3 mph - N/A   Clear
8:00 AM 67 °F - 64 °F 88% 30.15 in 9 mi ESE 1.2 mph - -   Clear
8:00 AM 66.2 °F - 64.4 °F 94% 30.21 in - Variable 1.2 mph - N/A   Clear
8:30 AM 69.8 °F - 64.4 °F 83% 30.21 in 6.2 mi Variable 1.2 mph - N/A   Unknown
9:00 AM 69.8 °F - 64.4 °F 83% 30.21 in 6.2 mi Variable 3.5 mph - N/A   Mostly Cloudy
9:30 AM 73.4 °F - 64.4 °F 73% 30.21 in - East 3.5 mph - N/A   Clear
10:00 AM 75 °F - 64 °F 61% 30.12 in 16 mi SE 2.3 mph - -   Clear
10:00 AM 75.2 °F - 64.4 °F 69% 30.21 in 6.2 mi Variable 2.3 mph - N/A   Mostly Cloudy
10:30 AM 77.0 °F - 62.6 °F 61% 30.24 in 6.2 mi Variable 2.3 mph - N/A   Mostly Cloudy
11:00 AM 75.2 °F - 62.6 °F 65% 30.24 in 6.2 mi NW 3.5 mph - N/A   Overcast
11:30 AM 77.0 °F - 62.6 °F 61% 30.24 in 6.2 mi NW 4.6 mph - N/A   Scattered Clouds
12:00 PM 77 °F - 63 °F 52% 30.13 in 25 mi WNW 4.6 mph - -   Clear
12:00 PM 77.0 °F - 62.6 °F 61% 30.24 in 6.2 mi WNW 4.6 mph - N/A   Mostly Cloudy
12:30 PM 78.8 °F - 60.8 °F 54% 30.24 in 6.2 mi West 3.5 mph - N/A   Mostly Cloudy
1:00 PM 78.8 °F - 62.6 °F 57% 30.24 in 6.2 mi North 5.8 mph - N/A   Mostly Cloudy
1:30 PM 80.6 °F 81.5 °F 60.8 °F 51% 30.24 in 6.2 mi Variable 3.5 mph - N/A   Mostly Cloudy
2:00 PM 80.6 °F 81.8 °F 62.6 °F 54% 30.24 in 6.2 mi North 4.6 mph - N/A   Overcast
2:30 PM 82.4 °F 82.9 °F 60.8 °F 48% 30.24 in 6.2 mi WNW 5.8 mph - N/A   Mostly Cloudy
3:00 PM 83 °F - 61 °F 37% 30.10 in 12 mi NW 5.8 mph - -   Clear
3:00 PM 82.4 °F 82.9 °F 60.8 °F 48% 30.21 in 6.2 mi Variable 5.8 mph - N/A   Mostly Cloudy
3:30 PM 86.0 °F 86.1 °F 60.8 °F 43% 30.21 in 6.2 mi Variable 4.6 mph - N/A   Scattered Clouds
4:00 PM 83 °F - 61 °F 37% 30.09 in 12 mi NW 4.6 mph - -   Clear
4:00 PM 84.2 °F 84.4 °F 60.8 °F 45% 30.21 in 6.2 mi NW 4.6 mph - N/A   Partly Cloudy
4:30 PM 86.0 °F 86.1 °F 60.8 °F 43% 30.21 in - WNW 6.9 mph - N/A   Clear
5:00 PM 84.2 °F 84.4 °F 60.8 °F 45% 30.21 in - Variable 5.8 mph - N/A   Clear
5:30 PM 86.0 °F 86.1 °F 60.8 °F 43% 30.21 in - Variable 4.6 mph - N/A   Clear
6:00 PM 85 °F - 61 °F 35% 30.06 in 28 mi WNW 5.8 mph - -   Clear
6:30 PM 84.2 °F 85.0 °F 62.6 °F 48% 30.21 in - NW 4.6 mph - N/A   Clear
7:00 PM 83 °F - 62 °F 38% 30.07 in 25 mi WNW 5.8 mph - -   Clear
7:00 PM 84.2 °F 85.0 °F 62.6 °F 48% 30.21 in - WNW 5.8 mph - N/A   Clear
8:00 PM 81 °F - 63 °F 44% 30.09 in 25 mi NNW 5.8 mph - -   Clear
8:00 PM 80.6 °F 81.8 °F 62.6 °F 54% 30.21 in - NNW 5.8 mph - N/A   Clear
8:30 PM 80.6 °F 81.8 °F 62.6 °F 54% 30.21 in - NNW 5.8 mph - N/A   Clear
9:00 PM 79 °F - 63 °F 48% 30.11 in 22 mi NW 4.6 mph - -   Clear
9:00 PM 78.8 °F - 62.6 °F 57% 30.21 in - NW 4.6 mph - N/A   Clear
9:30 PM 77.0 °F - 62.6 °F 61% 30.24 in - WNW 4.6 mph - N/A   Clear
10:00 PM 75.2 °F - 62.6 °F 65% 30.24 in - NW 3.5 mph - N/A   Clear
10:30 PM 73.4 °F - 62.6 °F 69% 30.24 in - Variable 1.2 mph - N/A   Clear
11:00 PM 73 °F - 63 °F 62% 30.17 in 22 mi West 2.3 mph - -   Clear
11:00 PM 73.4 °F - 62.6 °F 69% 30.24 in - Variable 2.3 mph - N/A   Clear
11:30 PM 71.6 °F - 62.6 °F 73% 30.27 in - West 2.3 mph - N/A   Clear